Regional Weather Roundup
Issued by NWS Little Rock, AR

Home | Current Version | Previous Version | Text Only | Print | Product List | Glossary On
Versions: 1 2 3 4 5 6 7 8 9 10 11 12 13 14 15 16 17 18 19 20 21 22 23 24 25 26 27
000
ASUS44 KLZK 050305
RWRLZK

WEATHER ROUNDUP FOR ARKANSAS
NATIONAL WEATHER SERVICE LITTLE ROCK AR
1000 PM CDT WED MAY 04 2016

NOTE: "FAIR" INDICATES FEW OR NO CLOUDS BELOW 12,000 FEET WITH NO
SIGNIFICANT WEATHER AND/OR OBSTRUCTIONS TO VISIBILITY.

ARZ001-003-010-029-050400-
NORTHWEST ARKANSAS

CITY           SKY/WX    TMP DP  RH WIND       PRES   REMARKS
FAYETTEVILLE   CLEAR     51  44  77 CALM      29.99R
FORT SMITH     CLEAR     66  36  32 NW7       29.96R
HARRISON       CLEAR     56  40  55 NW5       29.97R
BENTONVILLE    CLEAR     59  36  41 N3        30.00R
ROGERS         CLEAR     58  39  49 N5        30.00R
SILOAM SPGS    CLEAR     55  36  47 N6        30.00R
HIGHFILL       CLEAR     57  40  52 NW6       29.99R
$$

ARZ004-005-016-050400-
NORTH CENTRAL ARKANSAS

CITY           SKY/WX    TMP DP  RH WIND       PRES   REMARKS
BATESVILLE     CLEAR     63  37  39 CALM      29.92R
FLIPPIN        CLEAR    N/A N/A N/A NW5       29.92R
MTN HOME       CLEAR     56  39  53 CALM      29.93R
$$

ARZ040-041-050400-
WEST CENTRAL ARKANSAS

CITY           SKY/WX    TMP DP  RH WIND       PRES   REMARKS
MENA           CLEAR     64  41  42 NW7       29.96R
MOUNT IDA      CLEAR     57  45  64 CALM      29.91R
$$

ARZ009-017-025-026-028-050400-
NORTHEAST ARKANSAS

CITY           SKY/WX    TMP DP  RH WIND       PRES   REMARKS
CORNING          N/A     61  39  44 N6        29.90R
JONESBORO      PTCLDY    65  35  33 N8        29.88R
NEWPORT        CLEAR     59  46  61 NW8       29.91R
BLYTHEVILLE    PTCLDY    58  48  69 N8        29.88R
$$

ARZ022-023-033-042-044-050400-
CENTRAL ARKANSAS

CITY           SKY/WX    TMP DP  RH WIND       PRES   REMARKS
LITTLE ROCK    CLEAR     66  38  35 N9        29.90R
N LITTLE ROCK    N/A     65  39  39 N6        29.90R
JACKSONVILLE   CLEAR     66  40  37 NW6       29.90R
SEARCY         CLEAR     64  41  42 NW6       29.92R
HOT SPRINGS    CLEAR     64  41  42 CALM      29.92R
RUSSELLVILLE   CLEAR     60  42  51 N3        29.93R
CLINTON        FAIR      55  48  76 CALM      29.94R
$$

ARZ036-050400-
EAST ARKANSAS

CITY           SKY/WX    TMP DP  RH WIND       PRES   REMARKS
WEST MEMPHIS   PTCLDY    63  47  55 N7        29.85R
$$

ARZ050-053-066-070-073-050400-
SOUTHWEST ARKANSAS

CITY           SKY/WX    TMP DP  RH WIND       PRES   REMARKS
ARKADELPHIA    FAIR      69  47  45 NW6       29.91R
CAMDEN         CLEAR     61  52  72 NW3       29.90R
TEXARKANA      CLEAR     69  44  40 NW6       29.92R
EL DORADO      PTCLDY    66  55  67 NW5       29.90R
DE QUEEN       CLEAR     63  44  50 CALM      29.93R
$$

ARZ056-057-069-050400-
SOUTHEAST ARKANSAS

CITY           SKY/WX    TMP DP  RH WIND       PRES   REMARKS
PINE BLUFF     CLEAR     66  45  46 NW6       29.89R
STUTTGART      CLEAR     63  46  55 NW8       29.89R
MONTICELLO     CLEAR     64  52  64 CALM      29.88R

$$






USA.gov is the U.S. government's official web portal to all federal, state and local government web resources and services.